Theta_e
340 334 328 326 315 315 313 317 325 322 322 332 334 326 321 321 323 327 353 352 348 348 349 356 362 362 364 363 363 363 363 363 362 362 361 361 362 361 362 364 363 361 359 358 357 356 355 355 355
333 325 325 320 311 310 313 319 322 325 326 333 334 332 330 324 338 348 350 352 352 352 350 349 362 362 363 363 363 362 361 361 361 361 361 361 361 360 359 360 359 357 356 356 355 354 354 353 353
328 323 319 316 313 310 313 315 320 326 330 332 331 335 333 332 341 348 355 354 355 355 349 353 362 362 362 362 361 361 361 361 361 361 360 360 359 359 358 357 356 355 354 354 353 352 351 350 350
320 320 318 311 311 314 314 319 323 326 331 335 333 329 337 350 348 352 355 354 355 354 352 360 362 361 361 361 361 361 361 361 361 361 360 359 357 356 356 354 354 352 352 351 351 351 352 353 353
320 319 312 312 313 315 316 318 318 325 327 331 334 330 337 350 355 356 354 353 353 354 356 358 362 362 361 360 360 361 361 361 361 362 360 358 356 355 354 352 352 351 351 353 354 354 355 355 355
315 317 310 310 313 316 317 319 319 323 327 328 331 330 337 353 354 353 354 353 354 355 358 356 362 362 361 361 361 361 361 361 362 362 360 358 356 355 354 353 352 353 354 355 355 356 357 357 357
313 312 310 313 314 315 317 320 319 322 325 328 333 328 340 348 355 353 354 354 354 356 356 358 354 359 361 361 361 361 361 361 361 360 360 357 355 354 353 353 354 354 354 355 356 356 355 355 354
315 313 309 312 311 313 319 319 321 322 324 329 326 321 326 346 355 351 353 354 354 355 355 357 358 352 352 355 359 360 360 360 360 359 357 356 355 354 354 353 354 353 354 355 349 345 347 348 348
317 308 305 309 312 315 319 318 321 324 324 321 324 328 340 351 354 349 349 350 349 350 354 355 356 357 352 348 354 358 357 358 358 356 356 353 351 353 355 355 355 354 349 343 341 340 338 340 344
311 306 306 312 315 315 318 318 319 316 317 318 322 340 345 351 350 348 346 345 346 347 351 353 355 357 355 349 353 350 352 352 354 353 354 351 356 360 359 356 347 341 338 338 336 336 340 342 338
311 306 310 311 313 315 315 316 318 315 314 318 317 334 345 347 349 347 347 347 347 348 349 351 356 360 356 351 350 350 354 355 355 355 354 358 361 362 355 351 344 347 336 340 337 339 335 335 335
306 310 311 312 314 313 313 315 313 316 318 321 320 328 344 345 345 346 345 344 345 345 349 353 357 360 359 354 354 355 351 351 350 353 358 362 361 357 350 342 345 345 339 336 335 331 334 332 332
307 308 310 311 312 313 314 312 313 315 319 321 321 329 339 344 346 347 346 347 346 346 349 352 357 359 359 358 353 350 349 349 352 359 359 357 351 347 343 344 339 336 336 333 332 331 331 329 329
309 308 308 310 310 311 310 311 313 316 318 320 320 327 334 341 345 345 344 342 344 345 348 351 355 358 358 355 353 350 351 355 357 352 351 349 344 346 341 336 333 334 333 331 330 330 330 328 327
309 304 307 307 308 307 310 306 309 316 316 316 320 326 332 339 345 346 345 344 344 343 346 350 351 355 354 353 353 353 355 357 353 348 346 345 345 344 338 332 332 333 333 333 332 331 330 326 326
304 305 300 307 308 308 307 301 308 314 316 315 319 321 327 336 341 346 348 345 345 344 345 347 346 350 352 352 352 353 357 351 344 341 342 342 341 339 335 331 330 332 334 331 328 327 326 325 327
303 298 300 303 307 307 306 303 309 313 314 314 316 320 324 330 342 345 348 346 344 345 345 345 346 347 350 354 352 358 356 347 342 339 337 338 334 334 333 329 331 334 329 328 327 327 327 326 327
298 299 300 300 305 306 304 304 309 312 312 313 315 316 320 325 336 346 348 349 346 347 347 349 348 352 352 352 354 355 351 345 340 336 334 336 332 333 333 330 332 332 329 328 328 331 328 326 328
302 300 299 303 305 303 304 304 307 310 311 312 314 318 319 322 336 344 349 349 346 348 348 351 350 356 351 350 350 350 345 341 336 334 336 335 333 333 334 331 333 333 330 331 334 330 329 324 328
300 299 299 302 304 303 303 303 307 309 310 311 312 315 320 326 333 342 348 349 347 348 349 349 351 356 353 350 352 349 347 340 336 334 335 334 333 334 333 334 333 334 331 333 332 332 326 325 327
300 298 299 299 303 304 302 300 303 307 310 311 313 315 319 324 328 339 346 348 348 348 349 350 353 356 354 355 354 351 348 341 334 332 331 332 333 333 335 335 334 336 333 330 332 331 331 323 326
297 302 301 300 299 295 303 294 303 306 307 309 311 313 316 318 323 330 342 348 349 348 350 352 354 353 351 356 353 352 341 334 333 331 330 331 333 333 334 335 335 337 332 334 332 331 329 329 323
299 303 301 300 299 298 298 296 300 306 304 307 310 313 315 317 319 321 329 342 349 351 350 350 350 349 353 355 354 345 345 343 336 332 338 338 335 334 333 335 336 337 332 335 334 333 332 327 324
304 301 301 301 299 292 297 297 298 302 304 307 310 312 314 316 318 320 327 334 343 351 351 351 351 350 351 352 350 352 352 349 336 333 331 328 331 332 334 334 337 337 335 335 333 334 333 331 329
302 299 292 291 291 290 299 297 300 305 307 309 312 314 316 318 317 318 323 327 336 346 350 351 349 350 349 347 343 349 352 349 341 339 332 330 328 329 334 336 337 335 337 335 335 334 333 332 328
302 300 293 287 289 292 299 293 299 308 311 313 313 315 317 319 320 320 320 323 330 343 347 349 349 351 350 349 347 352 351 345 341 341 334 330 329 332 339 336 337 336 335 334 335 332 330 332 329
301 298 303 297 297 293 296 300 306 310 309 311 311 313 315 318 321 322 323 324 325 333 341 345 347 350 349 344 349 351 353 351 342 339 342 335 338 333 337 336 336 336 334 334 335 330 331 331 331
301 304 297 297 288 287 293 295 296 304 306 309 309 311 314 317 319 322 325 326 326 326 338 344 344 346 348 344 345 347 347 339 341 340 341 340 342 341 337 336 335 334 334 334 335 332 331 331 329
297 296 299 299 298 290 289 294 307 307 307 307 308 311 312 315 318 321 325 327 327 327 325 339 342 342 341 343 344 344 344 335 334 339 339 338 342 338 336 334 334 333 334 334 335 332 330 328 328
295 292 294 290 292 296 295 294 306 306 307 307 307 308 312 315 319 321 324 327 328 328 324 325 341 340 339 343 342 342 336 335 334 331 340 341 339 337 335 333 333 333 333 334 333 330 327 327 326
Wind_Speed
10 8 4 6 9 7 7 7 4 8 3 5 7 3 8 3 8 5 5 12 20 21 20 19 16 16 16 15 15 16 15 14 12 11 10 10 9 9 9 9 9 9 9 8 6 6 6 7 8
7 5 6 5 9 10 6 3 10 6 3 7 8 5 4 7 4 8 11 12 20 19 18 18 16 15 16 16 15 15 15 14 13 12 10 10 9 8 8 8 8 8 7 6 5 6 7 7 8
7 7 8 5 9 11 2 3 4 5 5 8 8 5 3 1 3 7 10 19 21 18 18 16 15 14 15 15 14 15 15 14 13 12 10 9 8 7 7 7 7 6 6 6 6 6 7 7 7
6 6 6 11 14 4 9 5 4 5 5 6 4 7 4 3 3 6 20 21 22 20 18 19 15 14 14 15 14 13 14 14 13 12 11 9 8 7 7 7 6 6 6 6 6 5 5 6 6
6 5 11 13 15 7 5 5 4 7 6 7 8 3 1 6 5 12 19 19 20 20 18 18 15 14 13 15 16 14 13 13 12 12 11 10 8 7 7 6 6 5 6 5 5 4 4 4 4
8 6 12 15 17 9 7 7 5 8 4 5 10 5 6 10 10 16 17 18 17 17 17 18 15 13 12 14 14 14 13 12 11 10 10 9 8 7 6 6 5 4 4 3 4 5 5 5 4
14 11 17 19 16 10 9 2 9 10 7 6 4 10 7 10 12 17 17 17 16 16 16 16 16 14 12 12 13 13 13 12 10 9 9 9 8 6 5 4 3 2 2 3 5 6 5 5 5
9 9 20 17 14 17 6 7 6 10 11 5 3 6 7 14 16 17 18 17 16 16 15 16 15 15 14 13 11 12 12 12 10 9 9 8 7 6 6 6 4 2 3 4 7 7 6 4 5
10 12 16 20 18 16 4 10 5 2 5 4 3 6 8 19 18 18 17 18 15 14 15 15 15 15 14 14 12 11 11 11 10 10 8 9 8 9 10 9 4 4 6 6 6 5 3 4 5
14 15 22 19 13 13 10 9 10 9 9 7 6 3 7 18 19 20 21 20 19 17 16 14 14 13 12 10 13 12 11 10 10 10 10 8 5 3 6 8 7 6 4 5 3 1 7 11 4
14 20 18 14 10 16 14 11 8 13 14 3 3 7 14 15 19 19 19 19 18 18 13 14 14 13 13 11 10 7 7 7 6 8 8 5 6 7 5 5 6 3 2 2 3 3 4 7 6
15 19 19 15 18 12 14 7 11 13 16 5 3 4 14 19 20 21 21 20 21 20 18 16 14 12 12 9 9 9 7 7 7 8 8 6 5 4 2 2 2 1 2 4 3 4 5 5 6
18 19 11 16 20 15 15 16 17 15 14 12 6 4 12 16 19 17 16 18 18 20 20 18 17 14 11 9 9 8 7 8 8 7 8 6 5 4 3 3 2 2 2 3 3 4 4 5 4
9 14 19 15 16 18 20 20 20 21 12 12 13 10 10 15 17 17 17 16 17 18 19 18 17 14 13 10 9 7 7 7 7 7 7 6 5 4 4 3 3 3 3 3 4 4 5 5 5
13 14 14 16 16 19 18 25 27 23 13 18 14 14 11 13 17 20 19 18 19 17 19 18 16 15 14 12 10 8 8 8 7 6 7 6 5 5 4 4 3 3 3 2 2 3 3 4 4
12 17 17 18 19 15 17 22 22 23 22 19 22 16 10 11 15 16 16 15 18 18 20 19 15 17 14 12 11 9 8 7 7 7 6 7 7 7 5 4 3 3 1 2 4 4 4 5 4
14 15 18 14 10 14 20 20 19 20 17 16 19 20 20 14 13 15 17 18 19 18 19 20 18 18 17 14 11 9 10 7 6 6 6 8 8 8 5 5 5 2 3 4 4 4 5 4 3
15 14 15 11 8 14 17 18 17 10 17 17 18 19 22 18 17 16 17 19 19 17 17 20 16 16 16 12 10 9 9 7 6 6 6 8 7 8 6 6 6 3 3 4 5 5 5 5 3
16 12 13 12 4 10 13 15 16 17 19 16 16 18 20 21 16 16 17 17 18 19 19 20 20 17 14 12 12 11 10 8 7 7 8 8 8 8 7 7 6 5 5 5 2 2 5 7 5
17 18 19 16 11 13 16 20 18 19 18 19 18 19 20 19 13 14 18 19 20 19 21 19 20 19 16 12 11 11 10 9 8 7 8 8 9 9 8 8 6 5 6 4 4 4 4 6 8
16 17 14 15 12 13 14 21 21 20 23 21 21 20 20 18 24 15 16 18 18 17 21 20 20 20 17 16 11 10 9 7 9 9 8 9 10 10 8 8 6 6 4 5 4 5 5 5 5
18 17 16 15 15 15 16 17 16 14 17 23 21 22 20 18 17 18 16 19 20 22 18 16 17 20 19 19 16 17 13 13 10 9 10 10 11 10 10 9 8 6 4 5 5 4 4 3 5
16 16 14 17 17 16 19 12 15 17 13 17 19 22 20 19 15 19 20 21 21 18 18 17 17 17 22 21 20 17 14 11 10 11 13 10 11 11 11 9 8 6 5 5 5 5 5 5 4
12 12 11 15 15 17 22 19 14 13 16 13 14 16 11 14 17 17 17 19 18 19 21 22 22 21 15 17 16 20 20 16 14 14 13 12 11 10 11 10 8 7 6 6 5 5 5 5 5
14 15 12 14 15 20 16 18 15 10 6 6 11 10 9 9 9 10 13 16 17 20 23 21 24 24 26 25 25 21 20 18 17 18 15 15 12 11 12 12 10 8 7 7 6 5 5 4 4
16 20 16 22 17 18 19 12 13 7 3 1 3 4 5 7 8 7 8 11 16 20 21 22 23 23 24 23 23 23 24 16 14 16 14 13 13 13 14 13 11 10 9 8 6 6 4 5 4
12 15 15 20 21 18 14 14 10 10 6 2 3 5 9 11 10 9 7 6 12 14 19 20 21 21 21 22 19 21 20 16 16 17 15 13 12 13 15 14 13 11 10 9 8 5 6 5 3
10 9 10 12 21 24 19 23 16 15 5 2 5 9 10 11 11 11 9 7 7 12 13 18 21 21 21 20 20 18 20 17 11 12 15 15 13 13 16 15 13 12 11 10 9 7 6 5 4
7 12 13 9 13 17 19 16 10 12 6 6 8 10 12 12 12 12 11 10 9 8 14 15 18 19 19 20 21 20 20 19 16 10 12 14 14 15 17 16 15 14 12 11 8 6 7 6 4
2 7 11 10 16 14 17 10 7 7 8 6 7 10 12 13 13 13 14 12 11 10 9 15 16 19 18 15 20 16 17 18 17 25 21 18 17 17 18 17 16 15 13 11 10 9 7 6 4
Wind_Direction
178 208 246 243 247 233 249 171 110 142 223 225 187 196 176 47 181 29 111 151 148 148 152 164 159 157 152 145 139 135 133 130 127 125 122 118 117 121 119 110 107 105 97 88 77 71 61 45 38
200 210 230 275 256 234 175 125 201 174 157 170 230 168 242 186 67 103 141 158 146 143 151 163 159 159 155 148 143 137 131 129 129 126 126 123 121 123 117 106 103 102 97 87 68 50 47 38 31
211 245 263 253 257 261 321 110 334 173 145 189 191 251 194 187 131 141 110 161 155 152 154 144 156 159 156 148 143 136 132 131 130 129 127 125 124 121 110 104 99 94 87 80 67 46 37 29 23
204 200 224 250 249 240 277 88 54 152 168 193 192 205 169 42 137 161 148 160 153 156 153 135 154 160 157 149 143 139 134 134 133 130 130 128 123 114 103 99 93 83 77 71 66 47 31 30 5
219 254 251 242 248 260 256 264 297 206 180 185 203 188 178 141 133 137 152 161 164 154 149 150 151 156 158 152 148 144 138 136 134 134 135 130 124 115 107 100 90 79 69 65 63 47 9 14 359
216 271 241 241 238 221 254 267 248 252 192 201 209 194 126 112 154 151 156 164 160 153 148 142 145 152 156 154 151 146 142 139 137 137 137 134 129 119 108 102 96 84 70 44 31 23 355 350 354
249 220 244 252 262 241 244 327 246 227 207 168 163 228 88 159 149 156 156 162 159 155 158 152 158 154 152 155 152 148 145 143 142 142 138 138 136 130 127 123 113 94 49 18 14 11 18 21 27
246 265 248 244 249 249 189 227 261 256 180 82 256 242 225 161 151 159 153 159 159 160 160 160 160 165 172 164 156 149 146 144 145 145 144 146 145 154 162 171 132 79 30 42 54 42 36 41 36
233 241 239 231 234 251 207 237 165 133 253 203 233 282 23 137 155 163 157 160 161 165 163 165 168 165 176 164 154 151 152 146 145 152 154 176 183 178 178 73 94 80 75 71 59 38 358 269 176
217 228 240 250 267 258 253 245 190 209 196 226 207 124 137 152 166 175 171 167 162 167 169 166 175 163 174 161 155 175 163 175 184 185 176 209 155 140 75 96 114 110 118 135 130 209 254 247 321
219 241 238 250 259 273 273 252 240 255 241 167 356 142 165 171 178 186 182 175 169 164 160 166 172 169 177 172 171 173 173 168 174 177 184 165 180 170 184 151 165 163 166 294 280 261 329 350 327
242 235 254 264 254 251 249 263 263 246 261 110 356 123 176 184 192 191 187 176 168 167 160 168 173 171 192 172 185 176 182 172 174 176 178 170 199 164 158 94 104 245 7 341 342 358 353 338 326
231 249 224 257 259 257 261 261 261 255 259 277 282 173 186 196 197 204 187 178 176 170 158 173 173 176 178 188 187 183 181 182 171 164 175 170 165 142 153 99 48 10 19 8 356 7 2 347 332
221 253 252 240 244 249 253 258 260 255 256 286 251 226 200 206 202 193 195 184 178 175 161 168 174 167 173 193 181 177 185 161 173 164 159 157 156 151 133 138 95 67 21 14 348 17 346 346 337
259 255 241 234 240 249 252 257 251 257 258 263 261 236 210 203 205 200 192 187 186 176 163 165 168 167 174 181 180 185 175 170 164 159 161 150 153 148 135 111 111 81 54 4 9 333 3 350 329
234 239 254 232 221 231 230 252 237 244 249 248 253 240 227 206 214 211 197 190 191 181 166 163 171 169 176 176 181 178 157 175 164 157 157 157 147 146 150 138 110 83 74 45 33 12 5 10 4
219 250 227 248 194 237 215 248 250 244 243 256 254 248 223 218 215 209 207 193 194 184 173 163 173 175 174 173 177 174 158 177 162 162 159 163 153 151 140 128 115 166 82 52 20 43 4 27 360
230 219 257 258 174 227 233 241 257 247 246 246 250 250 250 224 213 212 199 188 186 184 184 168 170 173 175 166 174 170 166 165 161 168 159 161 152 147 156 125 131 146 93 73 52 24 37 18 10
277 266 262 260 260 266 264 254 248 252 256 247 250 254 242 236 220 195 192 187 181 185 185 180 167 166 172 176 178 173 174 169 172 168 151 164 159 155 157 141 150 118 91 59 65 80 47 45 21
243 245 245 249 253 261 260 255 248 252 255 252 257 247 250 203 221 200 186 181 181 186 190 187 169 167 177 179 182 179 174 173 171 163 166 170 166 165 169 156 147 132 122 108 82 34 73 60 33
234 240 242 251 254 239 266 263 251 248 252 253 250 254 253 236 202 204 196 186 179 191 191 191 178 168 176 178 176 168 161 174 171 167 171 174 173 177 167 165 143 157 179 118 109 80 22 75 66
247 222 248 248 248 253 227 269 257 227 238 237 243 240 236 237 240 220 203 194 193 177 192 192 179 172 182 177 173 177 175 174 180 181 175 167 181 180 176 169 162 183 129 121 116 86 74 14 64
247 266 230 249 251 257 246 248 260 246 225 247 240 242 246 247 251 234 206 205 203 191 186 188 187 192 178 186 181 177 188 184 173 182 158 179 175 184 181 177 167 162 165 128 122 115 56 78 43
252 264 256 256 253 245 237 250 249 242 214 237 243 245 272 271 249 253 217 215 203 200 189 188 180 192 191 188 194 193 185 187 177 181 172 181 177 180 188 180 176 172 145 152 135 120 101 68 54
232 236 238 225 225 243 238 235 244 266 17 336 327 325 334 327 300 289 231 219 212 199 204 194 196 190 188 178 190 193 197 189 183 174 178 180 182 184 178 184 181 176 175 160 147 140 129 128 89
217 232 235 243 247 255 222 229 258 99 76 36 285 320 345 343 342 329 313 293 214 203 213 203 207 203 195 207 193 188 194 190 183 184 179 185 187 183 165 186 182 177 175 167 155 158 143 126 138
240 236 261 271 267 265 264 210 139 158 117 100 61 29 12 0 355 350 336 299 286 230 205 220 216 209 197 199 199 197 195 186 196 183 180 181 186 178 172 182 179 177 180 175 169 148 163 161 163
262 349 234 221 247 247 236 246 253 161 140 79 36 18 13 357 354 356 348 336 298 278 232 209 224 215 210 198 202 192 183 175 193 182 188 181 182 174 175 178 176 178 182 183 197 167 158 163 166
239 235 238 291 263 244 246 248 24 102 107 58 25 9 3 357 356 350 351 346 317 278 260 216 214 219 213 202 205 192 187 175 160 184 207 176 173 174 177 176 176 182 183 186 196 191 161 170 168
310 284 290 272 255 245 262 257 92 91 77 38 22 4 354 351 355 360 356 355 343 330 285 252 206 214 212 202 207 198 184 182 201 161 191 182 175 179 180 178 181 184 184 182 187 192 168 184 196